[[{"header":{"parameterUnit":"m.s-1","parameterCategory":1,"la1":30.2992,"la2":30.254,"lo1":-89.0895,"lo2":-89.0443,"dy":0.0025,"dx":0.0025,"nx":19,"ny":19,"refTime":"2026-05-03T21:00:00:Z","depth":0,"parameterNumber":2,"parameterNumberName":"U-component_of_WINDS"},"data":[0,0,0,-0.3218,-0.3217,-0.3187,-0.3187,-0.3156,-0.3156,0,0,0,0,0,0,0,0,0,0,0,-0.323,-0.323,-0.3218,-0.3217,-0.3187,-0.3187,-0.3156,-0.3156,0,0,0,0,0,0,0,0,0,0,0,-0.323,-0.323,-0.323,-0.3217,-0.3187,-0.3187,-0.3156,-0.3176,0,0,0,0,0,0,0,0,0,0,-0.3205,-0.3218,-0.323,-0.323,-0.3217,-0.3187,-0.3187,-0.3177,-0.3175,-0.3172,0,-0.3169,0,-0.3162,-0.3154,-0.3154,0,0,0,-0.3215,-0.322,-0.3209,-0.323,-0.3217,-0.3187,-0.32,-0.3176,-0.3174,-0.3169,-0.3169,-0.3167,-0.3161,-0.3154,-0.3154,-0.3141,-0.3141,0,0,-0.3217,-0.3226,-0.3211,-0.3208,-0.3211,-0.3201,-0.3199,-0.3174,-0.3175,-0.3169,-0.3167,-0.3161,-0.3153,-0.3153,-0.3141,-0.3141,0,0,0,-0.3223,-0.3228,-0.3217,-0.3209,-0.3203,-0.32,-0.3198,-0.3176,-0.3172,-0.3166,-0.316,-0.3153,-0.3153,-0.3141,-0.3141,-0.3152,0,0,0,-0.3224,-0.3231,-0.3218,-0.3223,-0.3204,-0.3189,-0.32,-0.3173,-0.317,-0.3161,-0.3153,-0.3153,-0.3141,-0.3141,-0.3151,-0.3155,0,0,0,-0.3231,-0.3232,-0.3229,-0.3224,-0.3211,-0.3189,-0.3183,-0.3172,-0.3167,-0.3154,-0.3153,-0.3141,-0.3141,-0.3151,-0.3155,-0.3155,0,0,0,-0.3241,-0.3238,-0.3229,-0.3224,-0.3212,-0.3195,-0.3183,-0.3171,-0.3161,-0.3153,-0.3141,-0.3141,-0.3151,-0.3154,-0.3155,-0.3157,-0.3159,0,0,-0.3243,-0.3239,-0.3235,-0.3226,-0.3214,-0.3199,-0.3189,-0.3172,-0.3162,-0.3149,-0.3149,-0.3152,-0.3155,-0.3155,-0.3165,-0.3167,0,0,0,-0.3239,-0.3237,-0.3232,-0.3222,-0.3208,-0.3197,-0.318,-0.3174,-0.3162,-0.3157,-0.3151,-0.3153,-0.3153,-0.3154,-0.3155,-0.3155,-0.3142,-0.3142,-0.3142,-0.3255,-0.3243,-0.3237,-0.3221,-0.3213,-0.3195,-0.3188,-0.3176,-0.3167,-0.3166,-0.3162,-0.3169,-0.3171,-0.3172,-0.3171,-0.3162,-0.3162,-0.3162,-0.3162,-0.3257,-0.3252,-0.324,-0.3229,-0.3217,-0.3209,-0.3193,-0.3186,-0.3177,-0.3171,-0.3171,-0.3165,-0.3173,-0.3173,-0.3163,-0.3163,-0.3163,-0.3163,-0.3163,-0.3267,-0.3262,-0.3254,-0.324,-0.3231,-0.3216,-0.3208,-0.3197,-0.3187,-0.3187,-0.3182,-0.3181,-0.318,-0.3185,-0.3185,-0.3185,-0.3185,-0.3185,-0.3185,-0.3279,-0.327,-0.3264,-0.325,-0.3243,-0.3233,-0.3216,-0.321,-0.32,-0.3193,-0.3193,-0.3184,-0.3176,-0.3175,-0.3185,-0.3185,-0.3185,-0.3185,-0.3185,-0.3286,-0.3283,-0.3273,-0.3266,-0.325,-0.3242,-0.3229,-0.3216,-0.321,-0.3206,-0.3198,-0.3194,-0.3189,-0.3188,-0.3187,-0.32,-0.32,-0.32,-0.32,-0.3293,-0.329,-0.3279,-0.3269,-0.3258,-0.3245,-0.3237,-0.3225,-0.3212,-0.3207,-0.3204,-0.3201,-0.3201,-0.3196,-0.3195,-0.3194,-0.3208,-0.3208,-0.3208,-0.3297,-0.3292,-0.3286,-0.3273,-0.326,-0.3249,-0.3241,-0.3231,-0.3216,-0.3209,-0.3204,-0.3203,-0.3199,-0.3198,-0.319,-0.3189,-0.3186,0,0]},{"header":{"parameterUnit":"m.s-1","parameterCategory":1,"la1":30.2992,"la2":30.254,"lo1":-89.0895,"lo2":-89.0443,"dy":0.0025,"dx":0.0025,"nx":19,"ny":19,"refTime":"2026-05-03T21:00:00:Z","depth":0,"parameterNumber":3,"parameterNumberName":"V-component_of_WINDS"},"data":[0,0,0,3.8958,3.8959,3.8973,3.8973,3.9001,3.9001,0,0,0,0,0,0,0,0,0,0,0,3.896,3.896,3.8958,3.8959,3.8973,3.8973,3.9001,3.9001,0,0,0,0,0,0,0,0,0,0,0,3.8959,3.896,3.896,3.8959,3.8973,3.8973,3.9001,3.8987,0,0,0,0,0,0,0,0,0,0,3.8971,3.8978,3.896,3.896,3.8959,3.8973,3.8973,3.8986,3.8987,3.8998,0,3.901,0,3.9006,3.9004,3.9004,0,0,0,3.8954,3.8977,3.8975,3.896,3.8959,3.8973,3.8965,3.8987,3.8989,3.9001,3.901,3.9011,3.9007,3.9004,3.9004,3.9082,3.9083,0,0,3.8953,3.8965,3.8974,3.8977,3.8975,3.8965,3.8966,3.8988,3.8999,3.901,3.9012,3.9007,3.9004,3.9005,3.9082,3.9082,0,0,0,3.8954,3.8965,3.8963,3.8976,3.8978,3.8965,3.8967,3.8998,3.8996,3.9012,3.9007,3.9005,3.9005,3.9081,3.9082,3.9121,0,0,0,3.8953,3.8965,3.8963,3.897,3.8978,3.8988,3.8976,3.8995,3.8997,3.9007,3.9005,3.9005,3.908,3.9082,3.9118,3.9137,0,0,0,3.8957,3.8966,3.897,3.8971,3.8978,3.8987,3.8987,3.8995,3.8994,3.9004,3.9005,3.908,3.9081,3.9116,3.9133,3.9159,0,0,0,3.8964,3.9005,3.8971,3.9015,3.8978,3.9012,3.8987,3.9012,3.9025,3.9005,3.9081,3.9082,3.9115,3.9131,3.9157,3.9182,3.9195,0,0,3.9022,3.9012,3.9037,3.9007,3.905,3.9009,3.9057,3.9058,3.9049,3.9072,3.9073,3.9119,3.9133,3.9159,3.9262,3.9271,0,0,0,3.906,3.9078,3.9087,3.91,3.9102,3.9104,3.9096,3.9097,3.9115,3.9063,3.9136,3.9144,3.9159,3.917,3.9179,3.919,3.9088,3.9088,3.9088,3.9159,3.9144,3.9184,3.9171,3.9184,3.9175,3.9184,3.9183,3.9165,3.9182,3.9188,3.9253,3.9267,3.9273,3.9285,3.9202,3.9202,3.9202,3.9203,3.9242,3.9264,3.9239,3.9268,3.9252,3.9277,3.927,3.9256,3.9276,3.9247,3.9259,3.9227,3.9284,3.9293,3.9205,3.9205,3.9204,3.9204,3.9204,3.9303,3.9311,3.9311,3.9328,3.9342,3.9328,3.9348,3.9334,3.932,3.9332,3.9336,3.9335,3.9331,3.9335,3.9336,3.9336,3.9336,3.9336,3.9336,3.9366,3.9365,3.9383,3.9389,3.9395,3.9401,3.9393,3.9398,3.94,3.9388,3.9388,3.9367,3.9293,3.9273,3.934,3.9339,3.9339,3.9338,3.9338,3.9452,3.943,3.9459,3.9465,3.947,3.9485,3.9466,3.9478,3.9481,3.9491,3.9468,3.9416,3.9405,3.9398,3.9382,3.9472,3.9472,3.9472,3.9472,3.9502,3.9496,3.9521,3.9532,3.954,3.9527,3.9559,3.9553,3.9544,3.9545,3.953,3.9508,3.9502,3.9494,3.9485,3.9469,3.958,3.958,3.958,3.9553,3.9547,3.9577,3.9568,3.957,3.9573,3.9602,3.9615,3.96,3.9584,3.9544,3.954,3.9504,3.9493,3.9474,3.9461,3.9432,0,0]}]]